C/2020 O2 ( Amaral )

Japanese version
Home page
Updated on November 5, 2020

---------------------------------------------------------------------

* Profile

Discovery Date July 23, 2020
Magnitude 18.1 mag
Discoverer Leonardo S. Amaral (Rio de Janeiro, Brazil)

* Orbital Elements

Epoch 2021 Aug. 14.0 TT = JDT 2459440.5
T 2021 Aug. 28.37834 TT                                 Rudenko
q   4.8637352            (2000.0)            P               Q
z  -0.0003295      Peri.   10.26020     -0.17119643     +0.34074754
 +/-0.0001413      Node   256.75283     -0.95780208     -0.27744113
e   1.0016025      Incl.   71.75157     -0.23088299     +0.89828589
From 74 observations 2020 July 23-Sept. 14, mean residual 0".5.

* Finding Charts

* Magnitudes Graph

        m1 = 6.5 + 5 log d + 10.0 log r

---------------------------------------------------------------------

The orbital elements are published on M.P.E.C. 2020-U270.
The charts are made with StellaNavigator Ver.10 (AstroArts).
The magnitudes graphs are made with Comet for Windows.

---------------------------------------------------------------------

Copyright(C) Seiichi Yoshida (comet@aerith.net). All rights reserved.